Temp
19 19 18 18 23 26 24 23 24 23 23 22 21 22 22 22 21 19 15 14 16 15 15 15 16 15 15 15 15 15 15 15 15 15 15 15 15 15 16 15 15 15 15 14 15 15 15 15 15
18 18 18 22 24 26 25 24 23 23 22 21 21 21 22 21 19 19 16 14 16 15 14 14 15 16 15 15 15 15 15 15 15 15 15 15 15 15 15 14 14 15 15 15 15 15 15 15 15
19 18 21 24 25 25 24 23 23 22 20 21 21 20 20 20 18 17 14 16 14 16 15 16 15 15 15 15 15 15 15 14 14 15 14 15 15 15 15 14 14 15 15 15 15 15 15 15 14
17 19 21 24 24 23 24 23 22 22 20 19 20 22 19 16 17 14 16 16 14 14 14 15 15 15 14 14 14 16 15 15 14 15 14 14 14 14 14 15 15 15 15 15 15 15 15 14 14
18 21 24 24 23 23 23 22 21 22 21 21 20 21 20 16 16 16 16 15 14 14 14 15 15 15 15 15 14 14 15 15 13 14 15 14 14 14 14 14 15 15 15 14 14 15 15 15 14
21 22 24 24 23 22 22 21 21 22 21 21 20 21 19 17 15 16 16 16 14 13 14 14 14 14 15 14 14 14 13 14 13 13 14 14 14 14 14 14 14 14 14 14 14 14 14 14 14
21 23 23 23 23 22 22 20 22 22 21 22 20 21 19 16 16 16 16 16 14 14 13 14 14 14 14 14 14 14 14 13 13 13 13 14 14 14 14 14 14 13 13 13 14 14 14 14 14
20 23 22 23 23 22 21 20 20 20 22 19 19 21 21 16 17 16 16 15 14 14 15 14 14 14 14 14 13 13 14 14 13 13 13 13 14 14 14 14 14 13 13 13 13 13 14 14 14
17 23 23 22 22 22 20 20 19 18 19 19 19 19 17 15 16 16 15 15 14 14 14 15 15 14 14 13 13 13 13 13 13 13 12 12 14 14 14 14 14 13 13 13 13 13 13 13 13
20 23 22 21 21 21 20 19 20 19 21 20 19 18 15 14 14 14 14 13 14 13 13 12 14 14 13 13 13 13 13 13 12 12 12 12 12 13 13 13 13 13 13 13 13 13 13 13 13
20 21 20 19 18 18 19 19 19 19 20 20 20 19 17 15 14 14 14 14 13 13 12 13 13 14 13 12 13 13 13 13 12 12 12 13 12 12 13 12 12 12 13 12 13 13 13 12 13
20 18 18 17 16 17 18 18 18 19 19 18 17 16 16 15 15 15 14 13 13 14 12 13 13 13 13 12 11 11 11 12 12 12 12 12 12 13 12 12 12 12 12 12 11 11 12 12 12
19 18 17 16 15 16 16 17 18 18 18 17 16 15 15 16 16 15 14 14 13 13 14 13 13 13 13 13 12 12 12 12 12 12 12 12 12 11 11 11 11 11 11 11 11 11 12 12 11
17 16 17 16 16 16 16 18 15 18 16 16 16 16 16 16 16 15 14 13 12 13 14 13 13 13 12 12 12 12 12 12 12 12 12 11 11 11 11 11 10 10 11 11 11 11 10 11 12
16 18 17 17 17 17 15 18 17 18 16 17 17 16 15 15 15 15 14 13 13 12 13 13 13 13 12 12 12 12 12 11 11 11 11 11 12 11 10 10 10 11 11 11 11 11 11 11 11
19 18 20 18 17 17 17 20 20 17 17 17 18 17 17 16 14 14 14 13 12 12 12 13 13 12 12 12 11 11 11 11 11 11 11 10 10 10 11 11 11 11 11 11 11 11 10 10 9
20 19 19 19 16 16 17 18 20 19 17 17 16 16 16 15 14 13 13 13 12 12 11 12 12 12 12 11 11 11 11 10 11 11 11 11 11 11 11 11 11 11 11 11 11 11 11 9 9
18 18 19 18 18 15 16 18 20 19 16 16 16 16 14 14 14 14 13 12 12 11 10 11 12 11 11 11 10 10 10 10 10 10 10 10 11 10 10 10 10 10 10 10 10 10 10 10 10
16 16 17 18 16 14 17 17 18 18 16 16 16 16 15 13 12 12 12 12 11 10 10 10 11 11 11 10 9 9 9 10 10 10 10 10 10 10 10 10 10 9 9 9 9 9 9 10 10
16 16 17 17 15 13 15 15 17 17 16 15 14 14 14 13 12 11 11 11 10 10 10 11 11 11 10 9 8 7 9 9 9 9 9 9 10 9 9 9 9 9 8 9 9 8 7 9 10
17 16 16 14 14 15 13 16 16 15 14 14 14 13 13 12 12 11 10 11 10 9 9 10 10 10 9 9 9 9 9 9 9 9 9 9 9 9 9 9 9 8 9 8 9 8 8 6 8
14 14 13 12 13 14 13 15 18 17 15 15 14 14 13 12 11 11 10 10 10 9 8 9 10 10 9 9 9 9 9 9 9 9 9 9 8 9 8 9 8 8 8 8 8 8 8 7 6
15 12 12 12 11 10 13 11 18 15 15 15 15 14 13 12 11 10 9 9 9 8 7 8 9 10 9 9 9 9 8 7 9 8 8 8 8 8 8 8 8 8 8 8 7 7 7 7 7
12 12 12 10 11 10 14 14 17 17 17 16 14 14 12 11 11 9 9 8 8 7 7 8 8 9 9 9 9 8 8 8 8 8 8 8 7 8 7 7 7 7 8 8 7 7 7 7 6
12 13 13 13 11 16 12 12 16 15 14 14 14 13 12 11 10 10 9 8 8 7 7 8 8 8 9 8 8 8 8 8 8 8 8 8 8 8 7 7 7 7 7 7 7 7 6 6 6
13 14 14 12 16 17 12 13 16 13 13 13 12 12 11 11 10 9 9 9 10 10 9 8 7 6 8 8 8 8 8 8 8 8 7 7 7 7 7 7 7 7 6 6 6 6 6 5 5
12 11 12 12 13 12 16 17 16 13 12 12 12 12 12 11 9 9 9 10 10 11 10 9 8 8 7 7 7 8 7 7 7 7 7 7 6 6 6 7 7 7 6 6 6 5 5 4 4
10 12 11 11 10 13 16 16 15 13 13 12 12 12 12 10 9 9 9 10 10 10 10 9 6 6 6 7 7 6 6 6 6 6 6 6 5 5 5 6 6 6 5 5 5 5 4 3 3
9 10 10 11 12 11 13 16 15 15 14 13 13 13 12 11 10 9 9 10 10 10 10 8 6 5 4 5 6 6 6 6 5 5 5 5 5 4 4 5 5 5 4 4 4 4 3 2 1
13 13 12 11 11 11 12 12 14 14 13 13 13 12 11 10 10 9 9 8 7 9 9 8 6 4 4 5 5 5 5 5 5 4 4 4 4 3 4 4 3 4 4 3 3 3 2 2 0
Height
1511 1511 1511 1513 1512 1497 1503 1510 1505 1508 1510 1516 1516 1517 1518 1518 1517 1527 1528 1526 1525 1527 1526 1527 1525 1526 1526 1526 1527 1527 1528 1529 1529 1530 1531 1533 1534 1534 1535 1535 1535 1535 1535 1535 1535 1535 1534 1535 1535
1511 1512 1513 1511 1506 1497 1503 1506 1509 1512 1517 1519 1520 1519 1518 1519 1524 1526 1527 1525 1525 1527 1527 1527 1525 1526 1527 1527 1528 1528 1529 1530 1530 1531 1533 1534 1534 1535 1536 1537 1537 1537 1537 1537 1537 1536 1536 1536 1537
1512 1513 1514 1504 1499 1500 1505 1508 1511 1517 1520 1520 1519 1522 1522 1524 1526 1527 1526 1525 1526 1525 1525 1525 1525 1525 1526 1528 1528 1529 1531 1532 1533 1532 1533 1535 1536 1536 1537 1538 1538 1538 1538 1537 1538 1538 1538 1538 1538
1514 1516 1514 1504 1505 1510 1507 1511 1517 1518 1521 1523 1522 1518 1525 1526 1527 1526 1525 1525 1526 1526 1526 1524 1524 1525 1524 1526 1525 1529 1530 1531 1533 1532 1533 1535 1537 1537 1538 1539 1539 1539 1539 1538 1538 1539 1539 1539 1539
1515 1513 1504 1506 1511 1512 1513 1517 1518 1517 1519 1519 1522 1519 1523 1526 1524 1524 1524 1524 1526 1526 1525 1524 1525 1525 1526 1525 1526 1528 1529 1531 1533 1531 1531 1533 1536 1538 1538 1539 1539 1540 1540 1539 1539 1539 1540 1540 1540
1514 1511 1504 1506 1510 1513 1513 1516 1517 1517 1518 1518 1520 1521 1522 1523 1524 1523 1524 1524 1524 1525 1524 1524 1524 1525 1525 1526 1527 1528 1531 1534 1531 1531 1530 1532 1534 1536 1538 1539 1539 1539 1540 1540 1540 1540 1540 1540 1540
1512 1506 1507 1507 1510 1512 1512 1517 1516 1516 1517 1517 1521 1517 1521 1523 1522 1522 1523 1523 1524 1524 1524 1523 1523 1524 1524 1524 1525 1527 1529 1530 1532 1530 1531 1532 1534 1537 1538 1539 1539 1539 1540 1540 1540 1540 1540 1540 1540
1515 1509 1510 1509 1511 1512 1516 1519 1519 1519 1516 1520 1521 1515 1516 1521 1521 1521 1522 1523 1524 1523 1523 1523 1523 1524 1524 1524 1525 1525 1525 1525 1530 1530 1530 1532 1533 1536 1537 1538 1539 1540 1540 1540 1540 1540 1540 1540 1540
1515 1508 1509 1513 1514 1514 1519 1519 1520 1521 1520 1520 1520 1520 1520 1520 1520 1521 1521 1522 1523 1523 1523 1522 1523 1523 1524 1525 1525 1525 1526 1524 1526 1529 1532 1534 1532 1534 1537 1537 1539 1540 1539 1539 1539 1539 1540 1540 1540
1515 1509 1513 1516 1517 1516 1519 1520 1519 1519 1515 1516 1517 1518 1517 1518 1519 1520 1521 1522 1522 1523 1523 1523 1522 1523 1523 1524 1525 1527 1527 1527 1527 1528 1531 1532 1531 1535 1535 1538 1539 1540 1538 1539 1539 1539 1539 1539 1539
1517 1515 1519 1521 1522 1522 1520 1520 1519 1518 1515 1513 1513 1515 1517 1517 1518 1519 1520 1521 1522 1524 1524 1523 1523 1523 1524 1523 1524 1526 1526 1527 1528 1529 1530 1532 1533 1533 1534 1536 1538 1537 1538 1538 1537 1537 1538 1538 1538
1518 1523 1523 1524 1524 1524 1521 1521 1518 1516 1515 1516 1516 1516 1516 1515 1516 1516 1517 1518 1518 1519 1521 1521 1522 1523 1524 1524 1525 1525 1526 1527 1528 1529 1531 1530 1531 1533 1534 1535 1536 1537 1537 1538 1537 1538 1537 1536 1537
1521 1524 1525 1525 1525 1524 1523 1521 1519 1515 1514 1514 1514 1513 1512 1513 1515 1515 1517 1518 1518 1519 1519 1520 1520 1521 1522 1523 1524 1525 1525 1526 1527 1527 1529 1529 1530 1532 1532 1533 1534 1534 1535 1536 1536 1536 1536 1535 1535
1525 1525 1525 1524 1524 1523 1522 1517 1518 1511 1512 1513 1512 1512 1512 1513 1514 1515 1516 1517 1517 1517 1517 1518 1519 1520 1521 1522 1523 1524 1524 1525 1525 1526 1526 1528 1529 1530 1531 1531 1533 1534 1533 1534 1535 1535 1535 1533 1534
1524 1522 1523 1522 1522 1522 1522 1513 1513 1511 1512 1511 1511 1511 1511 1511 1511 1512 1512 1514 1515 1516 1517 1517 1518 1518 1519 1520 1520 1521 1522 1524 1525 1524 1525 1526 1527 1528 1528 1530 1532 1532 1531 1532 1532 1533 1533 1533 1531
1521 1521 1518 1519 1522 1520 1521 1508 1507 1511 1511 1510 1509 1508 1508 1507 1506 1508 1510 1512 1513 1514 1513 1514 1516 1517 1518 1518 1520 1519 1520 1520 1520 1522 1523 1524 1526 1527 1527 1528 1528 1529 1530 1530 1530 1531 1531 1530 1531
1517 1524 1522 1517 1522 1523 1519 1512 1505 1507 1508 1508 1506 1504 1504 1504 1504 1504 1505 1506 1508 1510 1511 1511 1513 1515 1515 1516 1517 1518 1518 1518 1519 1520 1520 1522 1523 1525 1526 1526 1526 1527 1527 1529 1529 1529 1528 1528 1529
1525 1523 1519 1520 1519 1521 1517 1508 1501 1502 1506 1505 1504 1504 1503 1503 1503 1504 1505 1505 1506 1508 1509 1509 1512 1514 1515 1515 1516 1517 1517 1518 1518 1518 1518 1519 1521 1522 1523 1524 1525 1526 1525 1526 1527 1527 1527 1527 1527
1527 1527 1525 1518 1523 1525 1512 1507 1496 1500 1504 1503 1503 1503 1502 1502 1501 1500 1501 1502 1503 1506 1508 1507 1508 1509 1511 1515 1515 1516 1516 1516 1517 1518 1518 1517 1519 1520 1521 1522 1523 1524 1524 1524 1526 1526 1525 1526 1526
1528 1527 1521 1518 1525 1527 1512 1504 1495 1497 1500 1503 1505 1504 1503 1501 1499 1497 1497 1500 1501 1502 1502 1505 1508 1508 1510 1511 1514 1518 1516 1516 1518 1519 1518 1517 1517 1518 1519 1520 1521 1522 1522 1522 1523 1524 1526 1525 1523
1522 1524 1522 1528 1524 1516 1519 1496 1489 1495 1498 1500 1502 1504 1505 1503 1499 1496 1494 1497 1502 1504 1504 1505 1507 1510 1510 1509 1510 1513 1515 1515 1515 1515 1517 1517 1517 1516 1517 1518 1520 1522 1521 1522 1521 1523 1524 1524 1524
1526 1526 1529 1530 1531 1523 1520 1508 1483 1488 1495 1498 1501 1501 1502 1501 1500 1497 1494 1494 1496 1500 1503 1504 1504 1507 1509 1510 1511 1511 1512 1513 1514 1515 1516 1516 1517 1515 1516 1516 1519 1520 1519 1521 1521 1521 1522 1523 1524
1521 1529 1530 1531 1532 1534 1520 1526 1481 1492 1494 1494 1497 1500 1500 1499 1499 1498 1495 1493 1496 1499 1500 1502 1504 1505 1508 1509 1511 1511 1512 1512 1512 1513 1514 1516 1517 1516 1515 1515 1517 1518 1518 1520 1520 1521 1521 1522 1522
1528 1526 1526 1532 1531 1532 1508 1512 1484 1482 1484 1489 1496 1498 1499 1498 1498 1496 1495 1496 1495 1498 1501 1503 1504 1503 1504 1509 1510 1511 1509 1510 1511 1512 1512 1514 1516 1515 1514 1515 1515 1517 1517 1518 1518 1519 1520 1520 1520
1527 1523 1523 1524 1527 1500 1513 1514 1487 1486 1490 1491 1494 1496 1497 1496 1497 1497 1496 1496 1498 1498 1499 1500 1501 1503 1503 1505 1508 1511 1509 1509 1508 1511 1511 1510 1513 1513 1514 1513 1513 1515 1515 1516 1516 1517 1518 1519 1518
1520 1519 1518 1527 1504 1495 1512 1503 1476 1484 1486 1488 1490 1491 1493 1493 1494 1493 1492 1493 1494 1497 1499 1500 1502 1502 1502 1503 1505 1508 1509 1507 1508 1508 1509 1509 1509 1512 1512 1512 1512 1512 1513 1514 1513 1514 1516 1517 1516
1521 1524 1518 1517 1510 1512 1481 1468 1474 1480 1485 1485 1487 1490 1493 1494 1494 1495 1494 1493 1493 1493 1494 1495 1496 1498 1498 1500 1502 1502 1506 1504 1505 1505 1507 1508 1508 1509 1511 1510 1510 1509 1511 1511 1511 1512 1514 1514 1514
1520 1519 1525 1523 1525 1502 1473 1471 1475 1479 1481 1484 1486 1488 1490 1492 1493 1492 1493 1493 1492 1491 1492 1490 1491 1493 1495 1496 1497 1498 1502 1502 1502 1504 1503 1505 1506 1507 1508 1508 1507 1507 1508 1509 1510 1510 1512 1511 1511
1517 1516 1519 1518 1511 1513 1492 1467 1468 1473 1477 1480 1483 1485 1487 1489 1490 1490 1491 1491 1490 1489 1488 1487 1486 1487 1490 1492 1493 1494 1497 1499 1499 1500 1501 1502 1504 1505 1505 1505 1506 1505 1506 1506 1507 1508 1508 1508 1508
1496 1495 1497 1504 1503 1504 1498 1474 1472 1476 1478 1481 1482 1484 1485 1485 1486 1486 1487 1488 1487 1486 1485 1483 1482 1484 1485 1487 1489 1490 1494 1495 1497 1497 1498 1499 1501 1503 1503 1504 1504 1504 1504 1504 1504 1505 1505 1505 1506
Wind_Speed
3 4 3 3 5 6 3 4 2 4 3 5 5 8 10 8 12 4 3 11 2 4 3 0 5 5 5 5 6 6 5 4 4 6 6 5 3 3 4 5 3 4 6 6 8 8 9 9 8
3 3 2 5 5 7 6 4 4 6 7 3 4 7 5 8 8 3 2 8 4 3 2 2 5 5 6 5 5 5 5 4 4 5 5 6 5 4 5 5 5 5 5 6 7 7 7 7 7
3 2 5 3 4 7 4 3 7 6 3 4 3 3 3 7 5 2 4 2 3 2 2 6 3 4 4 5 5 4 4 5 5 5 6 6 6 4 5 6 5 3 4 5 5 6 6 6 6
3 2 5 6 6 5 5 5 5 3 2 2 4 2 3 1 1 1 4 2 1 2 1 2 2 3 4 3 7 6 4 6 7 6 6 6 5 3 4 5 5 3 4 4 4 4 4 4 4
3 4 3 0 3 3 5 4 2 1 2 1 1 4 1 1 1 4 4 1 3 3 1 3 4 5 3 2 3 7 13 14 10 9 7 6 5 4 5 5 6 5 4 3 2 3 3 3 3
4 4 4 3 5 4 4 3 2 2 2 2 3 2 3 3 2 4 2 1 2 3 3 5 7 9 4 4 5 7 10 12 10 8 9 9 6 3 7 6 6 6 5 4 3 2 1 1 1
5 4 2 2 6 6 5 3 6 1 2 1 1 4 5 5 5 3 2 2 2 3 3 5 8 13 12 12 5 10 12 11 8 7 7 8 5 6 8 8 8 8 7 6 5 4 3 2 1
3 3 3 1 5 3 3 3 1 5 2 1 2 2 3 7 5 5 5 4 5 4 4 5 5 5 8 5 4 9 15 16 8 8 6 5 6 6 5 7 9 9 9 8 7 6 5 4 3
2 4 1 2 1 4 3 4 2 3 7 5 4 5 2 4 6 6 5 6 6 7 6 6 6 4 2 3 2 3 15 13 14 11 6 7 8 8 8 8 10 11 10 9 8 7 6 5 5
3 3 3 4 5 3 1 5 5 5 7 8 9 9 6 6 7 7 6 6 7 7 6 5 7 5 3 4 7 8 8 9 9 7 11 10 8 8 9 8 12 13 11 9 8 7 6 6 6
3 5 4 5 4 4 5 7 6 8 8 5 6 3 7 8 10 10 9 8 7 7 7 7 7 6 4 6 5 6 9 12 10 13 14 15 13 12 14 14 12 12 11 9 8 7 7 7 8
1 5 4 2 3 5 6 8 9 12 14 5 6 6 7 10 11 12 12 11 10 9 7 9 8 6 3 1 1 2 1 8 11 12 14 14 16 17 19 17 15 13 9 7 6 5 9 8 9
5 3 1 3 6 7 10 12 11 16 12 9 8 10 13 12 12 12 12 11 9 9 10 10 7 5 4 4 3 3 4 6 8 10 11 11 10 11 14 16 16 14 12 10 8 6 8 7 10
2 3 5 2 2 3 6 10 3 4 2 6 8 8 8 11 12 12 12 12 11 11 12 11 9 7 5 5 4 3 3 4 5 5 6 7 9 11 12 11 8 8 8 10 10 9 8 10 11
1 3 4 0 4 1 9 7 7 4 3 6 5 4 4 7 11 15 15 14 12 11 11 11 11 10 8 7 6 6 4 4 4 5 5 6 8 8 8 10 12 11 10 11 10 11 11 10 11
2 3 5 4 8 4 6 6 3 1 8 13 15 17 16 13 13 14 14 14 13 12 13 14 12 11 10 9 8 8 7 8 8 7 8 9 9 9 10 10 10 10 10 10 11 10 8 8 9
1 5 6 4 3 7 3 12 3 8 10 17 13 11 12 11 10 12 15 16 15 14 13 14 13 12 12 11 10 9 8 8 8 8 8 8 9 9 9 9 9 9 9 10 10 10 10 8 9
4 5 4 7 4 7 11 19 14 10 8 6 6 6 6 5 8 9 13 15 16 15 14 15 13 12 12 12 11 10 9 9 8 8 8 8 7 7 7 8 8 8 8 8 9 9 8 9 8
4 6 9 10 5 6 9 17 22 16 7 5 3 5 5 6 6 8 11 16 17 16 15 16 15 14 14 13 10 9 9 9 8 8 7 7 7 7 7 7 6 6 5 5 6 6 5 5 5
5 9 9 6 0 5 12 20 20 12 7 3 4 8 9 8 8 6 10 16 18 18 19 18 16 15 14 12 10 7 10 8 8 7 6 6 6 6 6 6 5 5 4 3 3 2 2 2 1
9 9 7 6 10 12 10 11 6 6 7 6 2 6 9 11 11 7 6 14 16 17 19 18 16 13 14 14 15 12 10 9 9 9 8 7 6 6 5 5 5 5 5 4 3 3 3 1 1
8 3 2 6 7 5 4 6 5 8 7 7 2 2 6 10 10 9 4 11 16 17 16 18 17 15 15 15 14 13 10 10 10 9 8 7 7 6 6 5 5 5 4 5 4 3 2 1 2
2 1 4 6 6 7 6 4 2 2 6 7 5 2 4 8 9 9 5 5 12 14 16 17 17 16 16 16 16 14 11 11 10 10 9 8 8 6 6 6 5 5 5 4 3 2 2 1 2
2 4 5 1 2 4 5 4 5 4 4 9 4 2 5 8 9 7 5 2 9 12 14 15 16 17 16 17 18 16 14 13 12 11 10 10 9 8 7 7 6 5 4 4 3 3 3 3 4
4 4 2 3 3 3 5 5 9 4 3 3 2 1 3 6 6 6 5 2 6 9 12 15 17 17 17 18 18 17 16 15 13 13 12 11 11 10 10 8 7 6 5 5 4 4 4 4 5
9 3 3 5 4 6 8 8 3 3 4 6 5 4 1 3 3 5 6 5 1 6 12 15 16 15 17 18 19 19 18 16 15 14 13 13 12 11 10 9 7 6 6 5 4 4 5 6 6
5 6 1 4 4 5 7 8 8 9 7 8 6 5 2 2 2 3 4 5 3 1 6 15 20 19 19 19 19 18 18 18 16 15 15 14 13 11 11 9 9 7 6 5 4 4 5 7 8
2 3 2 2 4 7 7 13 8 7 5 7 11 9 5 5 3 2 1 1 4 5 9 13 17 18 21 20 19 17 18 17 16 15 14 14 13 11 10 9 8 7 6 5 5 5 6 6 7
6 5 4 3 4 4 8 5 5 5 4 8 11 12 7 8 7 6 5 6 8 11 13 14 17 19 19 21 20 18 18 17 16 14 14 13 12 11 9 8 7 7 5 5 5 5 6 6 6
14 14 17 7 9 7 9 11 8 4 4 7 9 10 9 11 12 11 10 10 12 18 18 17 16 19 21 20 20 19 18 16 15 14 13 12 11 10 8 7 7 6 6 5 5 6 7 7 6
Wind_Direction
34 23 344 292 251 241 97 106 20 121 145 36 19 9 10 13 8 25 18 9 44 50 162 149 233 239 244 231 231 232 238 224 207 184 177 167 158 147 142 157 141 109 113 116 106 105 103 98 94
48 346 297 275 261 233 103 119 123 63 61 32 9 347 20 70 29 82 341 7 43 78 55 16 275 264 254 236 239 232 236 224 210 188 184 173 169 134 127 112 121 104 109 109 109 109 106 100 93
29 18 269 268 282 19 65 146 89 85 64 357 348 57 25 37 37 54 342 2 59 315 303 262 283 297 273 261 225 219 230 244 227 211 193 195 198 152 159 162 164 130 124 119 116 115 115 110 100
353 266 244 259 70 49 73 96 73 132 90 31 353 146 119 57 344 24 326 306 18 64 149 262 207 178 180 242 260 246 244 231 236 218 212 201 213 188 183 190 198 184 152 135 125 122 121 122 115
330 250 240 136 88 103 70 68 74 146 78 39 353 64 92 56 239 298 328 238 147 133 208 251 228 203 167 175 214 263 241 238 229 216 200 197 193 207 221 202 203 205 195 174 150 132 124 126 132
238 267 232 183 106 123 158 159 204 233 126 148 232 272 97 240 182 297 335 245 198 183 236 252 221 195 218 303 260 221 228 227 216 205 193 179 175 220 238 228 221 219 220 218 213 198 162 133 135
285 260 63 138 150 177 176 183 224 250 242 244 317 263 117 182 216 263 282 220 201 208 182 223 232 235 260 290 284 227 220 218 224 200 189 186 191 233 231 233 231 232 225 227 230 233 237 237 236
298 273 180 144 183 137 166 220 289 264 313 0 260 252 177 178 222 252 259 209 195 202 220 235 259 254 264 267 275 218 229 221 226 218 200 208 197 233 245 244 239 234 234 233 231 234 239 242 250
314 243 146 93 191 89 150 252 185 291 276 243 243 268 125 173 244 251 250 219 211 214 227 247 269 275 246 284 313 227 234 222 229 231 224 233 213 220 230 240 250 240 234 234 240 244 250 252 257
306 294 56 23 28 12 340 288 323 272 254 246 243 240 230 225 227 224 222 222 211 200 218 234 265 272 274 254 213 205 215 219 210 216 232 228 242 240 248 252 248 254 243 242 243 245 248 249 249
11 20 54 49 9 328 299 282 269 274 269 267 262 239 224 216 215 217 224 220 223 207 212 238 253 275 285 275 251 228 236 235 231 250 242 243 250 255 282 274 256 246 236 243 245 253 254 251 247
237 50 22 11 354 309 294 314 278 261 266 278 273 255 239 227 219 215 216 220 221 221 214 239 248 251 252 234 181 211 192 229 242 248 242 249 252 244 238 241 241 245 238 238 243 242 252 257 260
36 31 339 305 302 297 296 282 281 282 283 271 256 254 241 236 229 224 220 221 221 226 229 232 233 220 204 183 168 167 206 225 251 256 250 240 241 239 236 228 233 237 241 236 234 239 250 261 265
20 320 309 280 313 296 296 293 297 186 273 268 273 264 250 239 235 228 221 217 213 217 224 225 222 226 211 207 205 205 221 229 235 254 246 247 259 253 252 242 228 221 228 236 242 241 256 259 260
217 237 189 202 331 312 314 245 230 253 290 281 267 249 260 258 235 228 224 216 211 210 218 224 227 228 231 225 216 218 226 234 241 227 224 227 234 240 228 240 249 251 251 249 251 256 260 262 269
267 241 317 81 347 118 334 310 171 257 311 299 289 277 275 267 239 227 220 215 209 203 213 221 225 227 225 228 227 229 229 228 227 226 225 227 234 245 252 251 253 254 256 257 258 251 255 258 268
197 322 333 317 38 327 316 305 22 274 309 303 307 295 281 268 242 224 215 211 208 201 201 217 220 224 224 222 227 237 237 228 223 222 228 229 230 230 241 250 257 259 259 257 254 259 254 250 260
305 305 305 299 9 325 299 282 285 309 328 293 310 331 341 307 257 242 221 210 204 200 200 213 218 224 224 222 227 230 228 228 219 218 217 218 226 230 237 243 247 250 255 258 259 259 255 260 265
306 289 289 297 34 308 277 291 288 303 281 247 321 333 349 348 321 247 225 213 204 203 201 205 213 220 220 223 219 221 221 221 225 220 214 209 214 219 225 234 239 236 232 243 252 261 265 261 270
284 295 301 299 25 293 294 289 286 289 215 218 316 321 329 336 336 299 239 218 211 202 205 211 215 219 216 210 204 202 217 214 225 226 220 215 209 207 204 209 212 211 204 206 210 211 273 272 200
279 264 305 293 317 262 299 265 196 173 200 198 292 322 331 337 338 331 266 214 214 210 210 210 213 219 213 213 218 213 222 221 218 217 217 212 206 197 199 193 197 198 188 191 177 183 174 358 7
280 78 286 291 319 296 20 291 228 182 203 196 262 323 339 345 345 342 319 209 209 208 208 210 211 216 222 222 217 214 221 223 224 222 229 221 218 205 204 202 202 205 195 199 181 181 174 140 306
337 16 303 306 283 331 198 251 225 143 224 199 196 358 13 10 359 354 344 205 203 204 205 207 212 215 223 218 215 215 211 218 227 226 226 232 235 230 219 213 219 215 204 205 198 204 214 238 268
93 269 224 250 228 247 156 228 268 181 224 156 174 104 31 15 14 15 14 161 187 197 209 209 214 218 221 220 218 221 222 230 231 233 230 237 237 236 233 221 214 218 220 229 245 272 291 304 309
223 257 284 241 209 279 153 233 251 185 145 140 178 180 18 19 21 28 46 108 190 210 211 214 218 224 223 221 223 229 231 231 228 232 228 231 237 240 232 219 217 233 240 244 253 269 283 295 305
193 261 229 279 275 302 151 240 225 139 191 188 192 200 338 51 67 79 80 83 118 242 237 232 230 227 229 225 227 231 233 229 230 229 233 234 235 236 230 234 241 249 244 241 250 269 288 295 303
162 212 47 274 231 269 228 214 243 188 218 204 198 197 219 131 111 86 91 90 94 308 262 250 242 233 233 227 228 227 231 229 229 228 230 229 229 228 233 238 251 241 234 238 247 265 281 294 301
259 124 135 220 260 255 263 265 237 189 197 206 214 203 195 185 188 184 244 332 331 311 287 257 236 230 234 226 225 223 228 226 227 227 224 226 225 225 231 237 235 227 236 250 267 282 286 294 297
171 198 219 292 242 262 291 272 98 144 196 195 198 196 214 214 219 229 262 277 298 301 288 268 240 225 225 224 219 218 223 223 219 219 220 222 227 226 230 230 234 236 231 243 265 275 293 303 303
237 220 203 211 214 228 267 269 158 155 162 213 216 212 230 226 225 235 251 263 277 288 280 266 244 226 222 220 218 218 221 219 219 215 214 214 218 226 228 230 223 225 239 256 286 290 289 294 292